Location: Hopewell Observatory
(38.8698°N, 77.6988°W)
Time: 18:48:10
(UTC-05:00)

Amateur Radio Satellites - All Passes

Search period start: 18 December 2014 18:18
Search period end: 19 December 2014 18:18
Location: Hopewell Observatory, 38.8698°N, 77.6988°W

Satellite Date Start Highest point End Downlink Frequencies (MHz)
Time Altitude Azimuth
GONETS M04 18 Dec 18:28:24 18:35:58 34° 275° (W) 18:43:29
STRAND 1 18 Dec 18:37:30 18:42:17 40° 99° (E) 18:47:02 437.568
RS-15 18 Dec 18:40:55 18:49:19 23° 26° (NNE) 18:57:55 29.354- 29.394
MaSat-1 18 Dec 18:50:26 18:52:50 66° 65° (ENE) 18:55:23 437.345
ISS 18 Dec 18:52:01 18:53:02 11° 12° (NNE) 18:54:03 145.825
CUSAT 1 18 Dec 19:01:07 19:05:11 15° 64° (ENE) 19:09:27 437.405
Cubesat XI-IV 18 Dec 19:01:34 19:05:01 17° 268° (W) 19:08:30 437.490
CUBESAT XI-V 18 Dec 19:22:41 19:27:10 54° 286° (WNW) 19:31:38 437.345
GOMX 1 18 Dec 19:24:07 19:26:12 14° 65° (ENE) 19:28:17 467.674
AAUSAT CUBESAT 2 18 Dec 19:29:44 19:31:51 14° 65° (ENE) 19:33:58 437.432
CANX-2 18 Dec 19:33:35 19:37:07 26° 69° (ENE) 19:40:41 2200.000
DANDE 18 Dec 19:40:18 19:46:21 25° 70° (ENE) 19:53:04 436.750
PRISM 18 Dec 19:42:22 19:44:40 15° 295° (WNW) 19:46:57 437.425
HO-68 18 Dec 19:53:21 20:00:25 64° 70° (ENE) 20:07:30 435.675
DOVE 4 18 Dec 19:58:28 20:01:48 24° 69° (ENE) 20:05:09 437.250
COMPASS 1 18 Dec 20:01:26 20:05:15 35° 71° (ENE) 20:09:07 437.405
SEEDS 18 Dec 20:03:41 20:07:42 44° 73° (ENE) 20:11:46 437.485
CUTE 1.7 + AOD 2 18 Dec 20:04:00 20:08:08 52° 74° (ENE) 20:12:19 437.475
DX 1 18 Dec 20:08:04 20:10:39 16° 65° (ENE) 20:13:14 434.975-435.025
STRAND 1 18 Dec 20:17:15 20:21:12 23° 294° (WNW) 20:25:08 437.568
BRITE-PL 18 Dec 20:21:55 20:26:09 88° 260° (W) 20:30:19 437.365/2234.400
ISS 18 Dec 20:27:21 20:30:23 35° 32° (NNE) 20:33:25 145.825
DELFI C3 18 Dec 20:31:45 20:35:13 27° 70° (ENE) 20:38:43 145.870
Oscar 11 18 Dec 20:32:55 20:36:50 35° 71° (ENE) 20:40:48 145.826/435.025
CUBEBUG 2 18 Dec 20:38:01 20:41:22 24° 69° (ENE) 20:44:46 437.445
CINEMA 3 18 Dec 20:39:30 20:43:23 40° 72° (ENE) 20:47:20 145.822/145.860
UKube-1 18 Dec 20:40:03 20:43:56 33° 70° (ENE) 20:47:49 .
CUSAT 1 18 Dec 20:41:33 20:49:11 73° 80° (E) 20:57:42 437.405
HUMSAT D 18 Dec 20:42:12 20:43:14 11° 63° (ENE) 20:44:17 437.325/437.525
RS-15 18 Dec 20:53:10 21:04:24 66° 54° (NE) 21:16:06 29.354- 29.394
VELOX 1 18 Dec 20:53:16 20:55:56 16° 65° (ENE) 20:58:37 145.980
ZACube-1 18 Dec 20:57:54 21:01:29 29° 70° (ENE) 21:05:08 437.345
GOMX 1 18 Dec 20:59:58 21:03:58 44° 261° (W) 21:07:57 467.674
AAUSAT CUBESAT 2 18 Dec 21:03:00 21:07:04 49° 261° (W) 21:11:11 437.432
CANX-2 18 Dec 21:09:29 21:12:59 25° 265° (W) 21:16:31 2200.000
UWE-3 18 Dec 21:19:54 21:24:00 62° 75° (ENE) 21:28:12 435.000/436.395/437.385
DANDE 18 Dec 21:22:40 21:30:12 71° 264° (W) 21:38:49 436.750
FUNcube-1 18 Dec 21:24:44 21:28:49 58° 74° (ENE) 21:32:59 145.935
AISAT 18 Dec 21:33:24 21:37:35 43° 72° (ENE) 21:41:47 437.250
DOVE 4 18 Dec 21:36:08 21:39:30 24° 265° (W) 21:42:55 437.250
COMPASS 1 18 Dec 21:38:11 21:41:04 18° 267° (W) 21:43:59 437.405
PCSat 18 Dec 21:39:46 21:41:00 11° 39° (NE) 21:42:14 145.827
SO-50 18 Dec 21:40:39 21:45:10 87° 300° (WNW) 21:49:51 436.795
SEEDS 18 Dec 21:41:27 21:43:44 14° 268° (W) 21:46:02 437.485
DX 1 18 Dec 21:42:21 21:46:31 45° 260° (W) 21:50:42 434.975-435.025
CUTE 1.7 + AOD 2 18 Dec 21:42:41 21:44:22 12° 269° (W) 21:46:03 437.475
ANTELSAT 18 Dec 21:43:04 21:45:37 14° 91° (E) 21:48:10 437.575/2403.000
HO-68 18 Dec 21:43:10 21:48:34 23° 267° (W) 21:53:59 435.675
BEESAT 2 18 Dec 21:43:21 21:46:04 16° 45° (NE) 21:48:45 435.950
CUBEBUG 1 18 Dec 21:48:12 21:51:36 23° 68° (ENE) 21:55:00 437.445
POLYITAN 1 18 Dec 21:59:02 22:00:40 12° 91° (E) 22:02:17 437.675
NANOSAT C BR1 18 Dec 22:02:53 22:04:52 13° 92° (E) 22:06:51 145.865
ISS 18 Dec 22:04:11 22:06:51 23° 228° (SW) 22:09:30 145.825
DELFI C3 18 Dec 22:07:16 22:10:27 22° 265° (W) 22:13:41 145.870
50 SAT 18 Dec 22:08:49 22:12:49 90° 256° (WSW) 22:16:53 437.505
Oscar 11 18 Dec 22:10:03 22:13:06 19° 267° (W) 22:16:10 145.826/435.025
HUMSAT D 18 Dec 22:14:25 22:18:29 61° 259° (W) 22:22:37 437.325/437.525
CUBEBUG 2 18 Dec 22:14:31 22:17:58 25° 265° (W) 22:21:30 437.445
QB50P1 18 Dec 22:16:00 22:19:02 19° 94° (E) 22:22:03 145.935-145.965
UKube-1 18 Dec 22:16:57 22:20:08 20° 265° (W) 22:23:20 .
CINEMA 3 18 Dec 22:18:33 22:20:49 14° 268° (W) 22:23:08 145.822/145.860
TIGRISAT 18 Dec 22:18:35 22:22:51 34° 97° (E) 22:27:07 435.000
ESTCUBE 1 18 Dec 22:22:21 22:26:48 58° 74° (ENE) 22:31:16 437.505/2401.250
CUSAT 1 18 Dec 22:25:54 22:31:46 24° 274° (W) 22:38:04 437.405
VELOX 1 18 Dec 22:27:53 22:32:08 46° 260° (W) 22:36:23 145.980
ZACube-1 18 Dec 22:34:41 22:37:52 21° 266° (W) 22:41:06 437.345
AIST 2 18 Dec 22:37:31 22:41:10 26° 50° (NE) 22:44:45 435.215
BEESAT 3 18 Dec 22:42:31 22:46:41 65° 57° (ENE) 22:50:47 437.485
POPSAT HIP 1 18 Dec 22:43:38 22:47:38 39° 98° (E) 22:51:37 437.405
UNISAT 6 18 Dec 22:46:17 22:50:59 69° 102° (ESE) 22:55:41 437.425
SPROUT 18 Dec 23:04:07 23:07:58 34° 71° (ENE) 23:11:50 437.525
FUNcube-1 18 Dec 23:05:04 23:05:34 10° 270° (W) 23:06:03 145.935
RS-15 18 Dec 23:06:20 23:16:06 35° 254° (WSW) 23:26:16 29.354- 29.394
TISAT 1 18 Dec 23:07:34 23:11:30 40° 72° (ENE) 23:15:26 437.305
DANDE 18 Dec 23:09:28 23:12:46 13° 278° (W) 23:16:13 436.750
AISAT 18 Dec 23:11:44 23:14:24 16° 267° (W) 23:17:05 437.250
DUCHIFAT 1 18 Dec 23:12:33 23:16:49 86° 103° (ESE) 23:21:05 145.980
ANTELSAT 18 Dec 23:18:06 23:22:42 54° 286° (WNW) 23:27:18 437.575/2403.000
PCSat 18 Dec 23:20:10 23:25:33 61° 59° (ENE) 23:30:53 145.827
BEESAT 2 18 Dec 23:20:33 23:24:39 53° 243° (WSW) 23:28:40 435.950
BUGSAT 1 18 Dec 23:21:51 23:25:55 89° 107° (ESE) 23:29:59 437.445
CUBEBUG 1 18 Dec 23:23:57 23:27:48 30° 263° (W) 23:31:39 437.445
SO-50 18 Dec 23:24:18 23:26:27 13° 321° (NW) 23:28:37 436.795
QB50P2 18 Dec 23:24:36 23:28:50 67° 285° (WNW) 23:33:05 145.880/145.840
BEESAT 18 Dec 23:25:12 23:26:11 11° 61° (ENE) 23:27:10 436.000
POLYITAN 1 18 Dec 23:32:43 23:36:54 54° 286° (WNW) 23:41:05 437.675
YUBILEINY 18 Dec 23:35:45 23:44:02 50° 89° (E) 23:52:18 435.215
NANOSAT C BR1 18 Dec 23:36:54 23:41:00 48° 287° (WNW) 23:45:05 145.865
AUBIESAT-1 18 Dec 23:49:14 23:51:40 14° 57° (ENE) 23:54:07 437.475
QB50P1 18 Dec 23:51:09 23:54:59 34° 289° (WNW) 23:58:49 145.935-145.965
TIGRISAT 18 Dec 23:55:41 23:59:23 24° 292° (WNW) 00:03:07 435.000
ESTCUBE 1 19 Dec 00:02:06 00:04:00 12° 269° (W) 00:05:55 437.505/2401.250
M-CUBED/EXP-1 PRIME 19 Dec 00:11:35 00:15:28 25° 62° (ENE) 00:19:25 437.505
AIST 2 19 Dec 00:16:00 00:19:46 30° 247° (WSW) 00:23:28 435.215
POPSAT HIP 1 19 Dec 00:20:26 00:23:13 17° 294° (WNW) 00:26:00 437.405
BEESAT 3 19 Dec 00:23:35 00:24:16 10° 253° (WSW) 00:24:57 437.485
UNISAT 6 19 Dec 00:25:12 00:27:10 13° 297° (WNW) 00:29:09 437.425
ITUPSAT 1 19 Dec 00:32:51 00:37:30 52° 72° (ENE) 00:42:10 437.325
SWISSCUBE 19 Dec 00:33:11 00:37:52 58° 73° (ENE) 00:42:35 437.505
SPROUT 19 Dec 00:41:05 00:44:07 19° 266° (W) 00:47:10 437.525
O/OREOS (USA 219) 19 Dec 00:42:10 00:46:24 46° 106° (ESE) 00:50:40 437.305
TISAT 1 19 Dec 00:45:00 00:47:29 15° 267° (W) 00:49:59 437.305
BEESAT 19 Dec 00:58:30 01:03:18 84° 257° (WSW) 01:08:08 436.000
KKS-1 19 Dec 00:59:10 01:02:18 19° 66° (ENE) 01:05:25 437.445
STARS 19 Dec 01:01:02 01:03:06 13° 64° (ENE) 01:05:10 437.465
PCSat 19 Dec 01:05:02 01:08:24 17° 256° (WSW) 01:11:44 145.827
Oscar 19 19 Dec 01:06:39 01:11:20 33° 97° (E) 01:15:59 437.125/150
ITAMSAT 1 19 Dec 01:19:17 01:22:14 15° 92° (E) 01:25:10 435.822/435.867
AUBIESAT-1 19 Dec 01:21:11 01:25:57 75° 253° (WSW) 01:30:52 437.475
YUBILEINY 19 Dec 01:33:17 01:41:01 34° 288° (WNW) 01:48:47 435.215
M-CUBED/EXP-1 PRIME 19 Dec 01:45:46 01:50:12 38° 258° (WSW) 01:54:48 437.505
ITUPSAT 1 19 Dec 02:12:49 02:15:40 16° 268° (W) 02:18:31 437.325
SWISSCUBE 19 Dec 02:13:38 02:16:04 14° 268° (W) 02:18:31 437.505
HORYU 2 19 Dec 02:22:11 02:24:12 13° 91° (E) 02:26:14 437.375
O/OREOS (USA 219) 19 Dec 02:23:09 02:26:03 17° 303° (WNW) 02:28:58 437.305
KKS-1 19 Dec 02:34:33 02:38:39 37° 262° (W) 02:42:47 437.445
STARS 19 Dec 02:34:48 02:39:05 56° 259° (W) 02:43:24 437.465
Gurwin Techsat 1B 19 Dec 02:40:42 02:45:57 59° 101° (E) 02:51:10 435.225
Oscar 19 19 Dec 02:46:08 02:50:32 28° 293° (WNW) 02:54:55 437.125/150
VERMONT LUNAR 19 Dec 02:51:19 02:53:46 18° 147° (SSE) 02:56:14 437.305
PHONESAT 2.4 19 Dec 02:56:44 02:58:31 13° 144° (SE) 03:00:18 2401.200-2431.200
ITAMSAT 1 19 Dec 02:57:00 03:02:05 59° 287° (WNW) 03:07:09 435.822/435.867
MOZHAYETS 4 19 Dec 03:30:34 03:34:19 25° 68° (ENE) 03:38:06
AIST 1 19 Dec 03:45:51 03:50:06 62° 81° (E) 03:54:18
HORYU 2 19 Dec 03:56:46 04:01:12 56° 287° (WNW) 04:05:36 437.375
AO-7 19 Dec 03:58:04 04:06:05 48° 101° (E) 04:14:01 29.400- 29.500
Gurwin Techsat 1B 19 Dec 04:22:01 04:25:24 17° 297° (WNW) 04:28:46 435.225
VERMONT LUNAR 19 Dec 04:28:13 04:31:44 71° 162° (SSE) 04:35:15 437.305
PHONESAT 2.4 19 Dec 04:33:10 04:36:43 55° 159° (SSE) 04:40:17 2401.200-2431.200
SO-50 19 Dec 04:35:48 04:36:35 10° 37° (NE) 04:37:23 436.795
JAS-2 19 Dec 04:37:15 04:42:11 31° 95° (E) 04:46:47 435.910
CUBESAT XI-V 19 Dec 04:50:22 04:52:25 13° 63° (ENE) 04:54:27 437.345
PRISM 19 Dec 04:55:19 04:58:59 29° 70° (ENE) 05:02:39 437.425
MOZHAYETS 4 19 Dec 05:07:18 05:11:23 31° 264° (W) 05:15:31
GONETS M04 19 Dec 05:29:57 05:38:32 59° 91° (E) 05:47:09
Cubesat XI-IV 19 Dec 05:38:40 05:42:55 24° 95° (E) 05:47:08 437.490
AO-7 19 Dec 05:51:08 05:58:38 39° 299° (WNW) 06:06:08 29.400- 29.500
STRAND 1 19 Dec 05:52:06 05:57:02 51° 72° (ENE) 06:01:59 437.568
VERMONT LUNAR 19 Dec 06:06:37 06:10:08 64° 359° (N) 06:13:39 437.305
CUTE-I 19 Dec 06:11:48 06:16:57 49° 100° (E) 06:22:04 437.470
PHONESAT 2.4 19 Dec 06:11:49 06:15:26 68° 355° (N) 06:19:03 2401.200-2431.200
SO-50 19 Dec 06:13:17 06:18:08 60° 56° (NE) 06:22:59 436.795
JAS-2 19 Dec 06:22:20 06:27:15 31° 294° (WNW) 06:31:49 435.910
CUBESAT XI-V 19 Dec 06:24:38 06:29:17 66° 259° (W) 06:33:56 437.345
PRISM 19 Dec 06:31:13 06:34:30 22° 265° (W) 06:37:47 437.425
Cubesat XI-IV 19 Dec 07:18:10 07:23:06 40° 290° (WNW) 07:28:01 437.490
HO-68 19 Dec 07:26:58 07:28:15 11° 88° (E) 07:29:32 435.675
GONETS M04 19 Dec 07:28:24 07:35:49 29° 290° (WNW) 07:43:17
STRAND 1 19 Dec 07:33:10 07:36:30 17° 267° (W) 07:39:50 437.568
VERMONT LUNAR 19 Dec 07:45:02 07:48:34 81° 196° (SSW) 07:52:07 437.305
PHONESAT 2.4 19 Dec 07:50:37 07:54:16 85° 13° (NNE) 07:57:55 2401.200-2431.200
CUTE-I 19 Dec 07:52:47 07:56:38 21° 296° (WNW) 08:00:28 437.470
CUTE 1.7 + AOD 2 19 Dec 07:54:13 07:54:28 10° 90° (E) 07:54:43 437.475
SO-50 19 Dec 07:55:16 07:58:12 16° 252° (WSW) 08:01:08 436.795
BRITE-PL 19 Dec 08:27:03 08:31:16 32° 97° (E) 08:35:46 437.365/2234.400
CINEMA 3 19 Dec 08:37:03 08:39:04 13° 91° (E) 08:41:07 145.822/145.860
ANTELSAT 19 Dec 08:43:07 08:44:14 11° 62° (ENE) 08:45:21 437.575/2403.000
AAUSAT CUBESAT 2 19 Dec 08:48:11 08:51:51 28° 96° (E) 08:55:29 437.432
CANX-2 19 Dec 08:55:26 08:59:43 61° 101° (E) 09:03:59 2200.000
DANDE 19 Dec 08:57:25 08:58:29 11° 80° (E) 08:59:37 436.750
GOMX 1 19 Dec 09:01:46 09:06:25 53° 100° (E) 09:11:22 467.674
QB50P1 19 Dec 09:09:19 09:11:16 13° 64° (ENE) 09:13:13 145.935-145.965
HO-68 19 Dec 09:09:50 09:17:01 75° 104° (ESE) 09:24:08 435.675
UWE-3 19 Dec 09:12:23 09:15:04 15° 92° (E) 09:17:46 435.000/436.395/437.385
FUNcube-1 19 Dec 09:16:10 09:18:26 14° 91° (E) 09:20:41 145.935
TIGRISAT 19 Dec 09:16:57 09:20:28 25° 68° (ENE) 09:24:04 435.000
COMPASS 1 19 Dec 09:21:52 09:26:09 82° 103° (ESE) 09:30:24 437.405
VERMONT LUNAR 19 Dec 09:23:49 09:26:37 22° 211° (SSW) 09:29:24 437.305
SEEDS 19 Dec 09:25:12 09:29:30 77° 284° (WNW) 09:33:46 437.485
CUTE 1.7 + AOD 2 19 Dec 09:26:30 09:30:47 63° 285° (WNW) 09:35:02 437.475
PHONESAT 2.4 19 Dec 09:29:33 09:32:47 30° 208° (SSW) 09:36:00 2401.200-2431.200
DX 1 19 Dec 09:32:11 09:36:05 32° 98° (E) 09:39:57 434.975-435.025
DOVE 4 19 Dec 09:34:37 09:39:24 86° 103° (ESE) 09:44:27 437.250
POPSAT HIP 1 19 Dec 09:36:03 09:39:31 26° 69° (ENE) 09:43:00 437.405
MaSat-1 19 Dec 09:41:58 09:43:47 19° 299° (WNW) 09:45:32 437.345
UNISAT 6 19 Dec 09:44:25 09:48:37 51° 73° (ENE) 09:52:56 437.425
YUBILEINY 19 Dec 09:48:09 09:54:35 22° 66° (ENE) 10:00:59 435.215
DELFI C3 19 Dec 09:48:11 09:52:16 56° 100° (E) 09:56:17 145.870
50 SAT 19 Dec 09:51:58 09:54:13 14° 92° (E) 09:56:27 437.505
CUSAT 1 19 Dec 09:53:20 09:56:41 85° 99° (E) 10:01:12 437.405
Oscar 11 19 Dec 09:57:12 10:01:36 86° 103° (ESE) 10:05:57 145.826/435.025
HUMSAT D 19 Dec 10:00:45 10:04:16 24° 95° (E) 10:07:46 437.325/437.525
DUCHIFAT 1 19 Dec 10:04:10 10:08:15 53° 74° (ENE) 10:12:21 145.980
UKube-1 19 Dec 10:04:42 10:09:02 74° 103° (ESE) 10:13:21 .
CUBEBUG 2 19 Dec 10:05:44 10:10:21 69° 101° (ESE) 10:15:04 437.445
BRITE-PL 19 Dec 10:05:50 10:09:39 26° 290° (WNW) 10:13:43 437.365/2234.400
BUGSAT 1 19 Dec 10:10:58 10:14:57 51° 74° (ENE) 10:18:54 437.445
CINEMA 3 19 Dec 10:11:55 10:16:35 65° 285° (WNW) 10:21:26 145.822/145.860
ANTELSAT 19 Dec 10:16:03 10:20:22 70° 259° (WSW) 10:24:50 437.575/2403.000
QB50P2 19 Dec 10:16:25 10:20:37 78° 76° (ENE) 10:24:51 145.880/145.840
ESTCUBE 1 19 Dec 10:18:23 10:20:32 13° 91° (E) 10:22:41 437.505/2401.250
VELOX 1 19 Dec 10:20:02 10:24:06 35° 98° (E) 10:28:09 145.980
ZACube-1 19 Dec 10:23:16 10:27:49 77° 102° (ESE) 10:32:24 437.345
AAUSAT CUBESAT 2 19 Dec 10:24:02 10:27:22 23° 291° (WNW) 10:30:40 437.432
POLYITAN 1 19 Dec 10:24:41 10:28:53 84° 258° (WSW) 10:33:07 437.675
NANOSAT C BR1 19 Dec 10:28:20 10:32:32 78° 258° (WSW) 10:36:45 145.865
CANX-2 19 Dec 10:33:32 10:35:06 12° 296° (WNW) 10:36:41 2200.000
DANDE 19 Dec 10:38:11 10:41:12 31° 289° (WNW) 10:45:04 436.750
GOMX 1 19 Dec 10:41:14 10:44:11 17° 294° (WNW) 10:47:13 467.674
QB50P1 19 Dec 10:42:35 10:46:41 52° 260° (W) 10:50:49 145.935-145.965
UWE-3 19 Dec 10:47:24 10:51:49 49° 287° (WNW) 10:56:19 435.000/436.395/437.385
FUNcube-1 19 Dec 10:50:38 10:55:02 54° 286° (WNW) 10:59:30 145.935
O/OREOS (USA 219) 19 Dec 10:53:04 10:57:35 73° 68° (ENE) 11:02:06 437.305
TIGRISAT 19 Dec 10:53:26 10:57:06 27° 264° (W) 11:00:52 435.000
HO-68 19 Dec 10:58:56 11:03:58 21° 302° (WNW) 11:09:00 435.675
AISAT 19 Dec 11:02:04 11:06:30 75° 285° (WNW) 11:10:55 437.250
DX 1 19 Dec 11:08:50 11:12:07 21° 293° (WNW) 11:15:24 434.975-435.025
POPSAT HIP 1 19 Dec 11:11:54 11:15:20 24° 264° (W) 11:18:47 437.405
CUBEBUG 1 19 Dec 11:13:45 11:18:00 52° 100° (E) 11:22:13 437.445
RS-15 19 Dec 11:15:39 11:25:48 46° 109° (ESE) 11:35:54 29.354- 29.394
DOVE 4 19 Dec 11:15:51 11:16:33 10° 297° (WNW) 11:17:14 437.250
UNISAT 6 19 Dec 11:23:41 11:25:44 13° 269° (W) 11:27:49 437.425
DELFI C3 19 Dec 11:25:35 11:27:01 12° 296° (WNW) 11:28:28 145.870
50 SAT 19 Dec 11:25:41 11:29:37 42° 287° (WNW) 11:33:33 437.505
HUMSAT D 19 Dec 11:36:19 11:40:00 28° 290° (WNW) 11:43:42 437.325/437.525
DUCHIFAT 1 19 Dec 11:43:02 11:44:25 11° 269° (W) 11:45:48 145.980
YUBILEINY 19 Dec 11:43:35 11:52:15 75° 266° (W) 12:00:54 435.215
CUBEBUG 2 19 Dec 11:44:37 11:46:29 12° 296° (WNW) 11:48:23 437.445
BUGSAT 1 19 Dec 11:49:22 11:50:43 11° 268° (W) 11:52:03 437.445
ESTCUBE 1 19 Dec 11:53:20 11:57:43 53° 287° (WNW) 12:02:03 437.505/2401.250
VELOX 1 19 Dec 11:57:13 12:00:26 20° 293° (WNW) 12:03:39 145.980
ZACube-1 19 Dec 12:02:38 12:03:33 11° 297° (WNW) 12:04:28 437.345
Oscar 19 19 Dec 12:22:15 12:27:04 42° 70° (ENE) 12:31:55 437.125/150
Gurwin Techsat 1B 19 Dec 12:25:59 12:26:43 10° 59° (ENE) 12:27:28 435.225
SPROUT 19 Dec 12:27:41 12:32:00 82° 103° (ESE) 12:36:18 437.525
TISAT 1 19 Dec 12:29:15 12:33:29 88° 283° (WNW) 12:37:43 437.305
ITAMSAT 1 19 Dec 12:35:53 12:39:46 22° 65° (ENE) 12:43:39 435.822/435.867
SWISSCUBE 19 Dec 12:36:18 12:39:16 16° 93° (E) 12:42:13 437.505
ITUPSAT 1 19 Dec 12:36:27 12:39:04 15° 92° (E) 12:41:41 437.325
BEESAT 3 19 Dec 12:37:26 12:40:04 17° 110° (ESE) 12:42:45 437.485
CUBEBUG 1 19 Dec 12:51:45 12:53:54 14° 296° (WNW) 12:56:04 437.445
BEESAT 19 Dec 13:00:44 13:04:48 27° 96° (E) 13:08:49 436.000
ISS 19 Dec 13:08:01 13:10:30 20° 131° (SE) 13:13:00 145.825
AO-7 19 Dec 13:09:37 13:12:30 12° 46° (NE) 13:15:22 29.400- 29.500
BEESAT 2 19 Dec 13:14:36 13:18:25 39° 115° (ESE) 13:22:18 435.950
HORYU 2 19 Dec 13:20:56 13:22:14 11° 62° (ENE) 13:23:33 437.375
RS-15 19 Dec 13:27:26 13:37:58 51° 311° (NW) 13:48:37 29.354- 29.394
M-CUBED/EXP-1 PRIME 19 Dec 13:31:17 13:34:27 20° 97° (E) 13:37:25 437.505
JUGNU 19 Dec 13:37:27 13:39:08 11° 176° (S) 13:40:48 437.505
YUBILEINY 19 Dec 13:44:27 13:47:25 12° 285° (WNW) 13:50:23 435.215
PCSat 19 Dec 14:00:21 14:05:43 74° 115° (ESE) 14:11:09 145.827
Gurwin Techsat 1B 19 Dec 14:00:30 14:05:48 82° 75° (ENE) 14:11:08 435.225
Oscar 19 19 Dec 14:02:41 14:06:33 21° 266° (W) 14:10:27 437.125/150
AIST 2 19 Dec 14:12:29 14:16:41 78° 119° (ESE) 14:20:59 435.215
ITUPSAT 1 19 Dec 14:12:37 14:17:16 54° 287° (WNW) 14:21:53 437.325
SWISSCUBE 19 Dec 14:12:47 14:17:22 48° 288° (WNW) 14:21:55 437.505
ITAMSAT 1 19 Dec 14:14:00 14:18:56 44° 261° (W) 14:23:53 435.822/435.867
BEESAT 3 19 Dec 14:14:02 14:17:54 41° 306° (NW) 14:21:52 437.485
STARS 19 Dec 14:26:24 14:30:16 29° 97° (E) 14:34:07 437.465
KKS-1 19 Dec 14:26:47 14:31:04 44° 99° (E) 14:35:21 437.445
BEESAT 19 Dec 14:38:29 14:42:34 29° 292° (WNW) 14:46:39 436.000
SRMSAT 19 Dec 14:39:07 14:39:59 10° 174° (S) 14:40:52 437.500
AUBIESAT-1 19 Dec 14:40:41 14:45:02 70° 290° (WNW) 14:48:59 437.475
ISS 19 Dec 14:43:46 14:46:54 40° 327° (NNW) 14:50:02 145.825
JAS-2 19 Dec 14:48:30 14:53:06 18° 60° (ENE) 14:57:29 435.910
BEESAT 2 19 Dec 14:53:41 14:56:48 20° 312° (NW) 14:59:58 435.950
HORYU 2 19 Dec 14:53:51 14:58:17 71° 258° (WSW) 15:02:46 437.375
AO-7 19 Dec 14:55:25 15:03:29 58° 66° (ENE) 15:11:36 29.400- 29.500
M-CUBED/EXP-1 PRIME 19 Dec 15:05:36 15:09:34 33° 295° (WNW) 15:13:14 437.505
JUGNU 19 Dec 15:26:26 15:27:13 10° 187° (S) 15:28:01 437.505
GONETS M04 19 Dec 15:42:30 15:49:38 27° 69° (ENE) 15:56:40
Gurwin Techsat 1B 19 Dec 15:45:03 15:46:21 11° 271° (W) 15:47:40 435.225
PCSat 19 Dec 15:46:08 15:49:43 18° 314° (NW) 15:53:19 145.827
RS-15 19 Dec 15:46:30 15:53:52 20° 342° (NNW) 16:01:21 29.354- 29.394
AIST 2 19 Dec 15:53:49 15:55:52 13° 318° (NW) 15:57:55 435.215
STARS 19 Dec 16:03:02 16:06:36 24° 292° (WNW) 16:10:10 437.465
KKS-1 19 Dec 16:04:30 16:07:21 17° 295° (WNW) 16:10:11 437.445
AIST 1 19 Dec 16:14:09 16:18:14 39° 92° (E) 16:22:19
ISS 19 Dec 16:22:54 16:24:11 12° 346° (NNW) 16:25:29 145.825
SRMSAT 19 Dec 16:26:43 16:28:14 11° 184° (S) 16:29:44 437.500
JAS-2 19 Dec 16:29:33 16:37:19 89° 76° (ENE) 16:44:29 435.910
AO-7 19 Dec 16:49:32 16:56:34 30° 264° (W) 17:03:42 29.400- 29.500
Cubesat XI-IV 19 Dec 16:59:23 17:04:12 36° 69° (ENE) 17:09:01 437.490
MOZHAYETS 4 19 Dec 17:03:13 17:07:51 69° 101° (ESE) 17:12:25
CUTE-I 19 Dec 17:32:26 17:37:44 72° 74° (ENE) 17:43:02 437.470
GONETS M04 19 Dec 17:38:26 17:47:02 63° 268° (W) 17:55:33
AIST 1 19 Dec 17:53:19 17:56:04 16° 288° (WNW) 17:58:48
STRAND 1 19 Dec 18:04:54 18:08:28 19° 93° (E) 18:12:01 437.568
